This demonstration page uses our WeatherBlox Daily Observations layout. Learn more.

Left ArrowRight Arrow

41.86663, -103.66717

Hourly Observations for May 29, 2021

Temp ( °F °C ) Dew Point ( °F °C ) Humidity (%) Winds ( mph kmh ) Pressure ( in mb ) Visibility ( mi km ) Precip ( " mm )
12:49 am 00:49 Mostly Cloudy with Nearby Thunderstorms 55 13 52 11 88 88 NE 13 20 29.95 1014 10 16 0.00 0.00
12:53 am 00:53 Mostly Cloudy with Nearby Thunderstorms 56 13.3 51 10.6 84 84 ENE 10 17 29.96 1015 10 16 0.00 0.00
1:04 am 01:04 Mostly Cloudy 56 13.3 51 10.6 84 84 E 13 20 29.95 1014 10 16 0.00 0.00
1:53 am 01:53 Clear 54 12.2 50 10 87 87 E 15 24 29.93 1014 10 16 0.00 0.00
2:53 am 02:53 Clear 53 11.7 50 10 89 89 ESE 17 28 29.92 1013 10 16 0.00 0.00
3:53 am 03:53 Mostly Cloudy 53 11.7 50 10 89 89 SE 16 26 29.92 1013 10 16 0.00 0.00
4:11 am 04:11 Cloudy 53 11.7 50 10 89 89 SE 17 28 29.95 1014 10 16 0.00 0.00
4:53 am 04:53 Cloudy 53 11.7 50 10 89 89 SE 10 17 29.93 1014 10 16 0.00 0.00
5:36 am 05:36 Cloudy 53 11.7 50 10 89 89 SSE 10 17 29.98 1015 10 16 0.00 0.00
5:53 am 05:53 Cloudy 53 11.7 50 10 89 89 SSE 9 15 29.96 1014 10 16 0.00 0.00
6:53 am 06:53 Cloudy 53 11.7 50 10 89 89 SSE 8 13 29.99 1016 10 16 0.00 0.00
7:53 am 07:53 Cloudy 53 11.7 51 10.6 93 93 ESE 9 15 30.00 1016 9 14 0.00 0.00
8:37 am 08:37 Cloudy with Mist and Fog 53 11.7 52 11.1 96 96 ESE 12 19 30.02 1017 3 4 0.00 0.00
8:53 am 08:53 Cloudy with Mist and Fog 52 11.1 52 11.1 100 100 E 10 17 30.02 1017 2 3 0.00 0.00
9:00 am 09:00 Cloudy with Mist and Fog 52 11.1 52 11.1 100 100 ESE 12 19 30.03 1017 2 3 0.00 0.00
9:20 am 09:20 Cloudy with Mist and Fog 53 11.7 53 11.7 100 100 ESE 10 17 30.02 1017 3 4 0.00 0.00
9:35 am 09:35 Cloudy with Mist and Fog 54 12.2 54 12.2 100 100 ESE 9 15 30.01 1016 4 6 0.00 0.00
9:51 am 09:51 Cloudy 55 13 54 12 94 94 ESE 8 13 30.00 1016 7 11 0.00 0.00
9:53 am 09:53 Cloudy 56 13.3 54 12.2 93 93 ESE 8 13 30.01 1016 8 13 0.00 0.00
10:53 am 10:53 Cloudy 56 13.3 52 11.1 87 87 ESE 8 13 30.01 1016 10 16 0.00 0.00
11:06 am 11:06 Cloudy 57 13.9 53 11.7 87 87 SE 7 11 29.99 1016 10 16 0.00 0.00
11:53 am 11:53 Cloudy 61 16.1 52 11.1 72 72 ENE 7 11 30.00 1016 10 16 0.00 0.00
12:53 pm 12:53 Cloudy 62 16.7 51 10.6 67 67 Calm 30.00 1016 10 16 0.00 0.00
1:42 pm 13:42 Mostly Cloudy 65 18.3 51 10.6 61 61 VRB 3 6 29.90 1012 10 16 0.00 0.00
1:53 pm 13:53 Partly Cloudy 65 18.3 52 11.1 63 63 VRB 6 9 29.98 1015 10 16 0.00 0.00
2:53 pm 14:53 Mostly Cloudy 70 21.1 56 13.3 61 61 E 9 15 29.96 1015 10 16 0.00 0.00
3:53 pm 15:53 Mostly Cloudy 68 20 54 12.2 61 61 SE 14 22 29.97 1015 10 16 0.00 0.00
4:53 pm 16:53 Partly Cloudy 66 18.9 54 12.2 65 65 SE 10 17 29.98 1015 10 16 0.00 0.00
5:53 pm 17:53 Mostly Cloudy 63 17.2 53 11.7 70 70 SSE 10 17 30.01 1016 10 16 0.00 0.00
6:53 pm 18:53 Partly Cloudy 60 15.6 52 11.1 75 75 ESE 14 22 30.00 1016 10 16 0.00 0.00
7:53 pm 19:53 Mostly Cloudy 59 15 52 11.1 78 78 ESE 7 11 30.04 1017 10 16 0.00 0.00
8:53 pm 20:53 Mostly Cloudy 57 13.9 53 11.7 87 87 E 8 13 30.06 1018 10 16 0.00 0.00
9:53 pm 21:53 Partly Cloudy 57 13.9 52 11.1 83 83 SSE 8 13 30.08 1019 10 16 0.00 0.00
10:05 pm 22:05 Mostly Cloudy 57 13.9 53 11.7 87 87 SE 9 15 30.05 1018 10 16 0.00 0.00
10:53 pm 22:53 Cloudy 57 13.9 53 11.7 87 87 E 8 13 30.09 1019 10 16 0.00 0.00
11:53 pm 23:53 Cloudy 56 13.3 52 11.1 87 87 ESE 7 11 30.08 1019 10 16 0.00 0.00

Powered by AerisWeather